UAL313 KIAH-CYYZ

Flight info

Callsign UAL313
Flight time N/A
Altitude 37000
Route INDIE8 TPAKK DCT LIT J131 PXV DCT ROD DCT QWERI NUBER6
Aircraft B738/M-SDE2E3FGHIRWXY/LB1

Departure

Time N/A
Airport George Bush Intercontinental Airport (KIAH)

Arrival

Time 2026-05-05 07:18
Airport Toronto Pearson International Airport (CYYZ)
Time Latitude Longitude Altitude Speed Heading
2026-05-05 06:33 41.65542 -83.04278 36694 ft 479 kts 25°
2026-05-05 06:34 41.71351 -82.99920 36697 ft 478 kts 25°
2026-05-05 06:34 41.77140 -82.95570 36703 ft 478 kts 25°
2026-05-05 06:35 41.82942 -82.91200 36692 ft 478 kts 24°
2026-05-05 06:35 41.88705 -82.86851 36680 ft 478 kts 24°
2026-05-05 06:36 41.94500 -82.82468 36664 ft 478 kts 24°
2026-05-05 06:36 42.00300 -82.78071 36660 ft 479 kts 24°
2026-05-05 06:37 42.06011 -82.73734 36659 ft 479 kts 25°
2026-05-05 06:37 42.11783 -82.69341 36650 ft 480 kts 25°
2026-05-05 06:38 42.17594 -82.64909 36675 ft 480 kts 25°
2026-05-05 06:38 42.23420 -82.60455 36647 ft 482 kts 25°
2026-05-05 06:39 42.29255 -82.55987 36637 ft 483 kts 25°
2026-05-05 06:39 42.35041 -82.51545 36637 ft 483 kts 25°
2026-05-05 06:40 42.40771 -82.47136 36636 ft 485 kts 24°
2026-05-05 06:40 42.46636 -82.42615 36635 ft 485 kts 24°
2026-05-05 06:41 42.52389 -82.38169 36605 ft 485 kts 25°
2026-05-05 06:41 42.58206 -82.33664 36619 ft 485 kts 25°
2026-05-05 06:42 42.64062 -82.29120 36624 ft 485 kts 25°
2026-05-05 06:42 42.69578 -82.23823 36599 ft 496 kts 49°
2026-05-05 06:43 42.73510 -82.16088 36613 ft 498 kts 52°
2026-05-05 06:43 42.77588 -82.08473 36619 ft 499 kts 51°
2026-05-05 06:44 42.81586 -82.00827 36613 ft 501 kts 56°
2026-05-05 06:44 42.85005 -81.92535 36621 ft 502 kts 60°
2026-05-05 06:45 42.88297 -81.84133 36615 ft 503 kts 59°
2026-05-05 06:45 42.91689 -81.75739 35954 ft 509 kts 59°
2026-05-05 06:45 42.93409 -81.71548 35415 ft 505 kts 59°
2026-05-05 06:46 42.95119 -81.67392 34724 ft 506 kts 59°
2026-05-05 06:46 42.96832 -81.63223 34039 ft 507 kts 59°
2026-05-05 06:46 42.98555 -81.59018 33280 ft 509 kts 59°
2026-05-05 06:46 43.00281 -81.54796 32495 ft 510 kts 59°
2026-05-05 06:47 43.02007 -81.50561 31727 ft 510 kts 60°
2026-05-05 06:47 43.03735 -81.46312 30950 ft 511 kts 60°
2026-05-05 06:47 43.05461 -81.42068 30150 ft 511 kts 60°
2026-05-05 06:47 43.07186 -81.37814 29259 ft 513 kts 60°
2026-05-05 06:48 43.08885 -81.33548 28624 ft 507 kts 61°
2026-05-05 06:48 43.10541 -81.29319 27988 ft 502 kts 62°
2026-05-05 06:48 43.12152 -81.25176 27347 ft 497 kts 61°
2026-05-05 06:48 43.13761 -81.21028 26747 ft 491 kts 61°
2026-05-05 06:49 43.15357 -81.16915 26136 ft 487 kts 61°
2026-05-05 06:49 43.16939 -81.12842 25535 ft 482 kts 61°
2026-05-05 06:49 43.18507 -81.08804 24941 ft 478 kts 61°
2026-05-05 06:49 43.20065 -81.04794 24348 ft 475 kts 61°
2026-05-05 06:50 43.21610 -81.00810 23732 ft 472 kts 61°
2026-05-05 06:50 43.22629 -80.98180 23332 ft 470 kts 61°
2026-05-05 06:50 43.24156 -80.94236 22640 ft 468 kts 61°
2026-05-05 06:50 43.26165 -80.89036 21794 ft 462 kts 61°
2026-05-05 06:51 43.27661 -80.85159 21217 ft 458 kts 61°
2026-05-05 06:51 43.29142 -80.81312 20614 ft 454 kts 61°
2026-05-05 06:51 43.30613 -80.77487 20021 ft 451 kts 61°
2026-05-05 06:51 43.32073 -80.73687 19436 ft 448 kts 61°
2026-05-05 06:52 43.33032 -80.71187 19029 ft 447 kts 61°
2026-05-05 06:52 43.34475 -80.67422 18447 ft 445 kts 62°
2026-05-05 06:52 43.35914 -80.63662 17851 ft 443 kts 62°
2026-05-05 06:52 43.37804 -80.58716 17006 ft 440 kts 62°
2026-05-05 06:53 43.39218 -80.55011 16422 ft 436 kts 62°
2026-05-05 06:53 43.40618 -80.51337 15835 ft 432 kts 62°
2026-05-05 06:53 43.42000 -80.47703 15281 ft 427 kts 62°
2026-05-05 06:53 43.42913 -80.45302 14902 ft 425 kts 62°
2026-05-05 06:54 43.44736 -80.40503 14120 ft 422 kts 62°
2026-05-05 06:54 43.46078 -80.36932 13561 ft 419 kts 64°
2026-05-05 06:54 43.47177 -80.33331 13321 ft 406 kts 70°
2026-05-05 06:54 43.48111 -80.29728 13118 ft 393 kts 71°
2026-05-05 06:55 43.49015 -80.26248 12934 ft 381 kts 70°
2026-05-05 06:55 43.49620 -80.24002 12823 ft 373 kts 70°
2026-05-05 06:55 43.50526 -80.20711 12650 ft 363 kts 69°
2026-05-05 06:55 43.51413 -80.17505 12383 ft 356 kts 70°
2026-05-05 06:56 43.52274 -80.14308 12024 ft 353 kts 70°
2026-05-05 06:56 43.53114 -80.11152 11662 ft 350 kts 70°
2026-05-05 06:56 43.53950 -80.08006 11327 ft 348 kts 70°
2026-05-05 06:56 43.55047 -80.03879 10852 ft 344 kts 70°
2026-05-05 06:57 43.55602 -80.01791 10621 ft 343 kts 70°
2026-05-05 06:57 43.56418 -79.98717 10273 ft 341 kts 70°
2026-05-05 06:57 43.57231 -79.95659 9896 ft 339 kts 70°
2026-05-05 06:57 43.58025 -79.92669 9724 ft 332 kts 70°
2026-05-05 06:58 43.58808 -79.89713 9542 ft 325 kts 70°
2026-05-05 06:58 43.59509 -79.86813 9393 ft 315 kts 78°
2026-05-05 06:58 43.59632 -79.83781 8959 ft 315 kts 95°
2026-05-05 06:58 43.59569 -79.80749 8565 ft 316 kts 93°
2026-05-05 06:59 43.59558 -79.77746 8250 ft 314 kts 92°
2026-05-05 06:59 43.59572 -79.73813 8020 ft 304 kts 92°
2026-05-05 06:59 43.59592 -79.70944 7900 ft 297 kts 92°
2026-05-05 06:59 43.59605 -79.69077 7807 ft 292 kts 92°
2026-05-05 07:00 43.59625 -79.66312 7697 ft 285 kts 92°
2026-05-05 07:00 43.59643 -79.63620 7574 ft 278 kts 92°
2026-05-05 07:00 43.59653 -79.60981 7417 ft 272 kts 92°
2026-05-05 07:00 43.59658 -79.58387 7261 ft 269 kts 92°
2026-05-05 07:01 43.59677 -79.55810 7106 ft 270 kts 88°
2026-05-05 07:01 43.60250 -79.53366 6925 ft 271 kts 49°
2026-05-05 07:01 43.61561 -79.51548 6845 ft 268 kts 39°
2026-05-05 07:01 43.62871 -79.49720 6669 ft 274 kts 43°
2026-05-05 07:02 43.64182 -79.47813 6494 ft 273 kts 43°
2026-05-05 07:02 43.65478 -79.45918 6318 ft 270 kts 43°
2026-05-05 07:02 43.66764 -79.44037 6160 ft 268 kts 43°
2026-05-05 07:02 43.68045 -79.42165 6001 ft 268 kts 42°
2026-05-05 07:03 43.69329 -79.40291 5825 ft 268 kts 42°
2026-05-05 07:03 43.70607 -79.38423 5662 ft 267 kts 42°
2026-05-05 07:03 43.71882 -79.36558 5505 ft 267 kts 42°
2026-05-05 07:03 43.73139 -79.34719 5352 ft 266 kts 43°
2026-05-05 07:04 43.74408 -79.32859 5191 ft 266 kts 42°
2026-05-05 07:04 43.75676 -79.31003 5032 ft 266 kts 43°
2026-05-05 07:04 43.76943 -79.29145 4872 ft 265 kts 42°
2026-05-05 07:04 43.78203 -79.27296 4724 ft 264 kts 42°
2026-05-05 07:05 43.79462 -79.25448 4564 ft 264 kts 42°
2026-05-05 07:05 43.80721 -79.23600 4405 ft 264 kts 41°
2026-05-05 07:05 43.81937 -79.21812 4247 ft 264 kts 42°
2026-05-05 07:05 43.83164 -79.20008 4099 ft 263 kts 41°
2026-05-05 07:06 43.84443 -79.18249 3936 ft 263 kts 38°
2026-05-05 07:06 43.85843 -79.16641 3660 ft 258 kts 20°
2026-05-05 07:06 43.87478 -79.16191 3382 ft 227 kts 337°
2026-05-05 07:06 43.88786 -79.17080 3160 ft 201 kts 311°
2026-05-05 07:07 43.89813 -79.18319 3048 ft 190 kts 300°
2026-05-05 07:07 43.90392 -79.19843 3014 ft 169 kts 278°
2026-05-05 07:07 43.90570 -79.21348 2997 ft 147 kts 265°
2026-05-05 07:07 43.90513 -79.22672 2982 ft 130 kts 258°
2026-05-05 07:08 43.90309 -79.23857 2995 ft 126 kts 250°
2026-05-05 07:08 43.89851 -79.24888 3000 ft 128 kts 234°
2026-05-05 07:08 43.89242 -79.25934 3005 ft 144 kts 236°
2026-05-05 07:08 43.88623 -79.27028 3005 ft 145 kts 236°
2026-05-05 07:09 43.88000 -79.28121 2988 ft 147 kts 236°
2026-05-05 07:09 43.87361 -79.29235 2987 ft 148 kts 236°
2026-05-05 07:09 43.86817 -79.30422 2975 ft 146 kts 254°
2026-05-05 07:09 43.86663 -79.31806 2981 ft 145 kts 253°
2026-05-05 07:10 43.86070 -79.32919 2995 ft 148 kts 226°
2026-05-05 07:10 43.85354 -79.33919 2989 ft 144 kts 237°
2026-05-05 07:10 43.84729 -79.34992 2986 ft 146 kts 234°
2026-05-05 07:10 43.84069 -79.36012 2983 ft 147 kts 233°
2026-05-05 07:11 43.83389 -79.37042 2982 ft 148 kts 233°
2026-05-05 07:11 43.82698 -79.38101 2990 ft 148 kts 233°
2026-05-05 07:11 43.82009 -79.39152 2979 ft 147 kts 233°
2026-05-05 07:11 43.81314 -79.40186 2998 ft 145 kts 232°
2026-05-05 07:12 43.80631 -79.41186 2982 ft 141 kts 232°
2026-05-05 07:12 43.79943 -79.42196 2988 ft 147 kts 233°
2026-05-05 07:12 43.79232 -79.43234 2985 ft 150 kts 232°
2026-05-05 07:12 43.78520 -79.44268 2978 ft 150 kts 232°
2026-05-05 07:13 43.77803 -79.45310 2979 ft 149 kts 232°
2026-05-05 07:13 43.77092 -79.46345 2968 ft 144 kts 232°
2026-05-05 07:13 43.76434 -79.47298 2918 ft 131 kts 232°
2026-05-05 07:13 43.75832 -79.48173 2789 ft 118 kts 233°
2026-05-05 07:14 43.75304 -79.48941 2665 ft 105 kts 232°
2026-05-05 07:14 43.74806 -79.49671 2531 ft 102 kts 232°
2026-05-05 07:14 43.74319 -79.50382 2403 ft 101 kts 230°
2026-05-05 07:14 43.73840 -79.51075 2253 ft 100 kts 231°
2026-05-05 07:15 43.73365 -79.51770 2124 ft 101 kts 230°
2026-05-05 07:15 43.72876 -79.52478 1981 ft 101 kts 229°
2026-05-05 07:15 43.72395 -79.53213 1828 ft 104 kts 229°
2026-05-05 07:15 43.71907 -79.53943 1719 ft 103 kts 226°
2026-05-05 07:16 43.71401 -79.54674 1571 ft 109 kts 226°
2026-05-05 07:16 43.70868 -79.55443 1433 ft 114 kts 226°
2026-05-05 07:16 43.70300 -79.56264 1290 ft 121 kts 226°
2026-05-05 07:16 43.69704 -79.57123 1104 ft 125 kts 225°
2026-05-05 07:17 43.69096 -79.57975 932 ft 128 kts 225°
2026-05-05 07:17 43.68496 -79.58882 786 ft 126 kts 225°
2026-05-05 07:17 43.67888 -79.59749 591 ft 122 kts 224°
2026-05-05 07:17 43.67368 -79.60504 565 ft 87 kts 225°
2026-05-05 07:18 43.67094 -79.60903 560 ft 35 kts 230°
2026-05-05 07:18 43.67128 -79.61069 559 ft 21 kts 317°
2026-05-05 07:18 43.67228 -79.61200 561 ft 18 kts 316°
2026-05-05 07:18 43.67312 -79.61308 558 ft 13 kts 321°
2026-05-05 07:19 43.67394 -79.61309 564 ft 13 kts 21°
2026-05-05 07:19 43.67483 -79.61286 560 ft 13 kts 355°
2026-05-05 07:19 43.67564 -79.61267 561 ft 10 kts 11°
2026-05-05 07:19 43.67592 -79.61259 561 ft 0 kts 11°